Regional Weather Roundup
Issued by NWS

Home | Current Version | Previous Version | Text Only | Print | Product List | Glossary Off
Versions: 1 2 3 4 5 6 7 8 9 10 11 12 13 14 15 16 17 18 19 20 21 22 23 24 25 26 27 28 29 30 31 32 33 34 35 36 37 38 39 40 41 42 43 44 45 46 47 48 49 50

000
ASUS43 KBIS 172120
RWRND

NORTH DAKOTA REGIONAL WEATHER ROUNDUP
NATIONAL WEATHER SERVICE BISMARCK ND
300 PM CST WED DEC 17 2014

NOTE: "FAIR" INDICATES FEW OR NO CLOUDS BELOW 12,000 FEET WITH NO
SIGNIFICANT WEATHER AND/OR OBSTRUCTIONS TO VISIBILITY.


NDZ001>003-009>011-017-172200-
NORTHWEST NORTH DAKOTA

CITY           SKY/WX    TMP DP  RH WIND       PRES   REMARKS
WILLISTON      CLOUDY    21  13  71 SE10      30.10F WCI  10
MINOT          MOSUNNY   17   9  70 SE10      30.18F WCI   5
MINOT AFB      MOSUNNY   16  13  86 SE13      30.18F WCI   2
$$

NDZ018>021-031>035-040>046-172200-
SOUTHWEST NORTH DAKOTA

CITY           SKY/WX    TMP DP  RH WIND       PRES   REMARKS
BISMARCK       MOSUNNY   19  10  68 SE12      30.20F WCI   7
DICKINSON      LGT SNOW  18  13  80 SE13      30.05F WCI   5
GARRISON         N/A     16  11  80 SE10      30.16F WCI   4
HETTINGER ARPT CLOUDY    17  14  88 SE12      30.07S WCI   4
$$

NDZ004>008-012>016-024-026-027-054-172200-
NORTHEAST NORTH DAKOTA

CITY           SKY/WX    TMP DP  RH WIND       PRES   REMARKS
GRAND FORKS    MOSUNNY   18  10  71 NE6       30.33F WCI  10
GRND FRKS AFB  SUNNY     17  12  80 VRB1      30.33F
DEVILS LAKE    SUNNY     16   1  53 S6        30.25F WCI   7
$$

NDZ022-023-025-028>030-036>039-047>053-172200-
SOUTHEAST NORTH DAKOTA

CITY           SKY/WX    TMP DP  RH WIND       PRES   REMARKS
FARGO          SUNNY     19  11  70 NE6       30.31F WCI  11
JAMESTOWN      SUNNY     18  10  71 E6        30.25F WCI  10
$$



USA.gov is the U.S. government's official web portal to all federal, state and local government web resources and services.